[[{"header":{"parameterUnit":"m.s-1","parameterCategory":1,"la1":30.2991,"la2":30.254,"lo1":-89.0895,"lo2":-89.0444,"dy":0.0017,"dx":0.0017,"nx":28,"ny":28,"refTime":"2024-06-24T21:00:00:Z","depth":0,"parameterNumber":2,"parameterNumberName":"U-component_of_WINDS"},"data":[0,0,0,0,0,0,0,0,0,0,0,0,0,0,0,0,0,0,0,0,0,0,0,0,0,0,0,0,0,0,0,0,0,0,0,0,0,0,0,0,0,0,0,0,0,0,0,0,0,0,0,0,0,0,0,0,0,0,0.4012,0.4014,0,0.4201,0.4204,0.4206,0.4298,0.4298,0.4298,0.4298,0.4494,0.45,0.4505,0,0,0,0,0,0,0,0,0,0,0,0,0,0.3731,0.3736,0.4012,0.4014,0.4016,0.4201,0.4204,0.4206,0.4298,0.4298,0.4298,0.4298,0.4493,0.4499,0.4505,0,0,0,0,0,0,0,0,0,0,0,0,0,0.388,0.3737,0.4011,0.4084,0.4093,0.4201,0.4204,0.4207,0.4298,0.4298,0.4298,0.4298,0.4491,0.4498,0.4506,0.4556,0,0,0.453,0.4534,0,0,0,0,0,0,0,0,0.3871,0.389,0.4071,0.408,0.4089,0.4226,0.4177,0.4324,0.4298,0.422,0.4298,0.4298,0.4405,0.442,0.4456,0.4565,0.4574,0.4531,0.4536,0.4539,0.4541,0,0,0,0,0,0,0,0.3861,0.3883,0.4087,0.4074,0.4085,0.4108,0.413,0.4205,0.4311,0.4227,0.4234,0.4255,0.441,0.4448,0.4461,0.4577,0.4531,0.4538,0.4543,0.4546,0.4737,0.4737,0,0,0,0,0,0,0.3839,0.3873,0.4081,0.4093,0.3978,0.4113,0.4137,0.4182,0.431,0.433,0.4255,0.4259,0.4435,0.4452,0.4469,0.4536,0.4539,0.4547,0.4551,0.4737,0.4737,0.4737,0,0,0,0,0,0,0.3832,0.3856,0.4073,0.3985,0.4014,0.4118,0.4168,0.4186,0.4224,0.4331,0.4351,0.4274,0.4435,0.4457,0.4534,0.4544,0.455,0.4557,0.4736,0.4737,0.4737,0.4671,0,0,0,0,0,0,0.3824,0.3853,0.3873,0.3985,0.4019,0.4134,0.4169,0.419,0.4237,0.4244,0.4355,0.4373,0.4437,0.4521,0.4541,0.4555,0.4563,0.4736,0.4737,0.4737,0.4672,0.4669,0.4666,0,0,0,0,0,0.3813,0.3847,0.3873,0.3898,0.4045,0.4135,0.4154,0.4226,0.4237,0.4258,0.4327,0.437,0.4539,0.4528,0.4552,0.4568,0.4736,0.4736,0.4737,0.4674,0.467,0.4666,0,0,0,0,0,0,0.3735,0.3863,0.3894,0.3964,0.4038,0.415,0.4179,0.4219,0.4292,0.4295,0.4382,0.4407,0.4475,0.4529,0.4515,0.4623,0.4642,0.4647,0.4585,0.4582,0.4579,0.4565,0.457,0,0,0,0,0,0.3725,0.3786,0.3896,0.3947,0.3982,0.4074,0.4115,0.4165,0.4245,0.4276,0.4351,0.4427,0.4498,0.4543,0.4614,0.468,0.4706,0.4703,0.47,0.4696,0.47,0.474,0.474,0.474,0.474,0.474,0,0,0.3707,0.3785,0.3818,0.3933,0.3996,0.4058,0.4099,0.4163,0.421,0.4286,0.4363,0.442,0.4511,0.4582,0.4618,0.463,0.4706,0.4697,0.4694,0.47,0.4741,0.4741,0.4741,0.474,0.474,0.474,0,0,0.3705,0.377,0.382,0.3882,0.3976,0.4037,0.4048,0.4155,0.4195,0.4273,0.4331,0.4389,0.4509,0.4572,0.4619,0.4641,0.4682,0.4661,0.4644,0.4682,0.4682,0.4682,0.4691,0.4693,0.4665,0.4665,0.4665,0,0.3671,0.3766,0.3841,0.3902,0.3951,0.4022,0.4074,0.413,0.4243,0.4276,0.4287,0.4439,0.4506,0.4593,0.4598,0.4634,0.4651,0.465,0.4676,0.4677,0.4679,0.4688,0.469,0.4662,0.4662,0.4662,0.4662,0,0.372,0.3785,0.3814,0.392,0.3973,0.4029,0.4113,0.4157,0.4202,0.4261,0.4339,0.4421,0.451,0.4535,0.4579,0.4628,0.4633,0.4659,0.4679,0.4674,0.4684,0.4688,0.4657,0.4658,0.4659,0.466,0,0,0.3675,0.3821,0.3831,0.388,0.3989,0.4041,0.41,0.4186,0.4223,0.4298,0.435,0.445,0.4474,0.4528,0.458,0.4613,0.4625,0.4635,0.4639,0.4631,0.4686,0.4666,0.4669,0.4653,0.4654,0.4655,0.4678,0,0.3689,0.3798,0.3867,0.3949,0.401,0.4078,0.4129,0.4202,0.4259,0.432,0.4383,0.4452,0.4479,0.4512,0.4547,0.4616,0.4637,0.4615,0.4704,0.4706,0.468,0.4674,0.4653,0.4672,0.4682,0.4683,0.4684,0,0.3721,0.3793,0.388,0.3982,0.4011,0.4056,0.4141,0.4197,0.4281,0.432,0.438,0.4432,0.4498,0.4512,0.4605,0.4588,0.4628,0.4667,0.467,0.4682,0.4695,0.4686,0.4679,0.4682,0.469,0.469,0.4689,0,0.368,0.3799,0.3867,0.3907,0.4027,0.4058,0.4109,0.4193,0.424,0.4314,0.4346,0.4427,0.4471,0.4533,0.4606,0.4609,0.4692,0.4711,0.4727,0.4725,0.4742,0.474,0.4742,0.4766,0.4766,0.4766,0.4766,0,0.3689,0.374,0.3851,0.3892,0.3952,0.4031,0.4087,0.4145,0.4218,0.4273,0.4336,0.4386,0.4479,0.4541,0.4599,0.4667,0.4686,0.4721,0.4736,0.4716,0.4711,0.4744,0.4745,0.4767,0.4767,0.4767,0.4766,0,0.3654,0.373,0.3809,0.3916,0.3944,0.3983,0.4075,0.4118,0.4178,0.4247,0.4267,0.4361,0.4437,0.4516,0.4619,0.4658,0.4724,0.4744,0.4696,0.4704,0.4716,0.4714,0.4739,0.4747,0.4764,0.4764,0.4763,0,0.3655,0.3696,0.3807,0.3848,0.3898,0.3963,0.4011,0.4091,0.4139,0.4237,0.4269,0.4349,0.4418,0.4536,0.4614,0.4693,0.4716,0.472,0.4729,0.4707,0.4717,0.4714,0.4719,0.4717,0.4716,0.4716,0.4715,0,0.365,0.3685,0.3752,0.3833,0.3888,0.3956,0.4025,0.4055,0.4148,0.4199,0.4277,0.433,0.4435,0.4514,0.4602,0.4657,0.4702,0.4711,0.472,0.47,0.4671,0.4688,0.4688,0.4711,0.4711,0.4712,0.4712,0.4712,0.3634,0.3674,0.3758,0.3831,0.3891,0.3955,0.4001,0.4066,0.4132,0.4223,0.4266,0.4344,0.4427,0.455,0.4603,0.4666,0.4679,0.469,0.4693,0.4695,0.4691,0.4659,0.4682,0.4683,0.4683,0.4683,0.4683,0,0.3633,0.369,0.3756,0.3851,0.3908,0.3944,0.4023,0.4069,0.4137,0.421,0.4276,0.4365,0.4443,0.4526,0.4609,0.4643,0.4666,0.4662,0.4661,0.4673,0.4674,0.4659,0.4642,0.4642,0.4642,0.4642,0.4642,0.4642,0.3639,0.3708,0.3753,0.3852,0.391,0.3986,0.4028,0.4087,0.4146,0.4243,0.4307,0.4361,0.4439,0.4527,0.46,0.4623,0.465,0.4641,0.4669,0.4669,0.4672,0.4675,0.4662,0.4646,0.4646,0.4663,0.4663,0.4663]},{"header":{"parameterUnit":"m.s-1","parameterCategory":1,"la1":30.2991,"la2":30.254,"lo1":-89.0895,"lo2":-89.0444,"dy":0.0017,"dx":0.0017,"nx":28,"ny":28,"refTime":"2024-06-24T21:00:00:Z","depth":0,"parameterNumber":3,"parameterNumberName":"V-component_of_WINDS"},"data":[0,0,0,0,0,0,0,0,0,0,0,0,0,0,0,0,0,0,0,0,0,0,0,0,0,0,0,0,0,0,0,0,0,0,0,0,0,0,0,0,0,0,0,0,0,0,0,0,0,0,0,0,0,0,0,0,0,0,2.4662,2.4661,0,2.4617,2.4616,2.4616,2.4516,2.4514,2.4512,2.451,2.4467,2.4468,2.4469,0,0,0,0,0,0,0,0,0,0,0,0,0,2.4665,2.4665,2.4662,2.4661,2.4661,2.4617,2.4616,2.4616,2.4517,2.4514,2.4512,2.4509,2.4467,2.4468,2.4469,0,0,0,0,0,0,0,0,0,0,0,0,0,2.4646,2.4666,2.4662,2.4606,2.46,2.4617,2.4616,2.4615,2.4517,2.4514,2.4511,2.4508,2.4467,2.4468,2.4469,2.4537,0,0,2.4472,2.4473,0,0,0,0,0,0,0,0,2.4647,2.4646,2.4615,2.461,2.4604,2.4569,2.4601,2.4589,2.4518,2.4549,2.451,2.4507,2.4504,2.4502,2.45,2.4535,2.4533,2.4472,2.4473,2.4474,2.4474,0,0,0,0,0,0,0,2.4649,2.4648,2.4644,2.4614,2.4608,2.4584,2.4578,2.4599,2.4544,2.4546,2.4539,2.4534,2.45,2.4499,2.4498,2.4532,2.4472,2.4473,2.4474,2.4474,2.4621,2.4625,0,0,0,0,0,0,2.4658,2.4649,2.4645,2.4643,2.4618,2.4586,2.458,2.4583,2.4544,2.4534,2.4537,2.453,2.4499,2.4497,2.4496,2.4574,2.4473,2.4475,2.4475,2.4618,2.4622,2.4626,0,0,0,0,0,0,2.4658,2.4658,2.4647,2.4644,2.4641,2.459,2.4594,2.4584,2.4583,2.4537,2.4527,2.4546,2.4496,2.4495,2.4527,2.4571,2.4475,2.4476,2.4614,2.4619,2.4624,2.4729,0,0,0,0,0,0,2.4659,2.4659,2.4684,2.4645,2.4641,2.4679,2.4597,2.4585,2.4585,2.4575,2.4542,2.4534,2.4494,2.4526,2.4529,2.4571,2.4477,2.461,2.4617,2.4622,2.4722,2.4737,2.475,0,0,0,0,0,2.4659,2.4716,2.4686,2.4686,2.4671,2.4681,2.4679,2.463,2.4588,2.4613,2.4584,2.4535,2.4566,2.453,2.4532,2.4575,2.4607,2.4615,2.4622,2.4715,2.4734,2.475,0,0,0,0,0,0,2.4762,2.471,2.4676,2.4721,2.4707,2.4664,2.4694,2.4652,2.4649,2.464,2.4581,2.4575,2.4616,2.4598,2.456,2.4639,2.4579,2.4587,2.4649,2.4666,2.468,2.4684,2.4478,0,0,0,0,0,2.479,2.4802,2.4756,2.4801,2.4795,2.4746,2.4749,2.4713,2.4695,2.4689,2.4661,2.4647,2.4653,2.4659,2.4662,2.4718,2.471,2.4749,2.4763,2.4775,2.4783,2.4812,2.4829,2.465,2.4649,2.4649,0,0,2.4848,2.4821,2.4832,2.4821,2.4805,2.4819,2.4742,2.476,2.4771,2.4692,2.4721,2.4701,2.4681,2.4726,2.4744,2.4713,2.4831,2.4784,2.4794,2.4795,2.4821,2.4838,2.4853,2.4654,2.4654,2.4653,0,0,2.4961,2.4942,2.4977,2.4962,2.4939,2.4906,2.4915,2.4879,2.4862,2.489,2.4831,2.4843,2.4855,2.4844,2.4839,2.4948,2.4904,2.4951,2.5026,2.5055,2.5069,2.5081,2.5121,2.5136,2.4959,2.4959,2.4959,0,2.5036,2.5055,2.5,2.5023,2.502,2.4948,2.4983,2.4972,2.4952,2.4952,2.4917,2.493,2.4912,2.4953,2.498,2.4979,2.4987,2.4955,2.5071,2.5083,2.5094,2.5131,2.5145,2.4965,2.4964,2.4964,2.4963,0,2.5149,2.5163,2.5194,2.5175,2.5175,2.5205,2.5155,2.5163,2.5126,2.5098,2.5128,2.5103,2.51,2.5107,2.5072,2.5144,2.5125,2.5082,2.502,2.5118,2.5151,2.5165,2.4974,2.4971,2.497,2.4968,0,0,2.5326,2.5276,2.5288,2.5279,2.5248,2.5258,2.5284,2.528,2.5288,2.5276,2.5297,2.5309,2.5268,2.5264,2.5227,2.5252,2.5341,2.5205,2.5204,2.5232,2.5419,2.5453,2.547,2.5311,2.5313,2.5315,2.5421,0,2.5432,2.5473,2.5424,2.5476,2.5488,2.542,2.5443,2.5427,2.5402,2.5409,2.538,2.539,2.5335,2.5332,2.5354,2.5325,2.5378,2.5317,2.5331,2.5332,2.5338,2.5487,2.5522,2.5623,2.5434,2.5436,2.5437,0,2.5561,2.5555,2.5607,2.5573,2.5576,2.5598,2.559,2.5598,2.5579,2.5558,2.5553,2.5509,2.5533,2.5472,2.5505,2.5465,2.5468,2.5455,2.5458,2.5458,2.5391,2.5492,2.5654,2.567,2.5457,2.5456,2.5454,0,2.5686,2.569,2.5722,2.5716,2.5677,2.5693,2.5678,2.5656,2.5656,2.565,2.5651,2.5648,2.5647,2.5646,2.5603,2.5563,2.5642,2.5577,2.5626,2.5628,2.5646,2.5646,2.5812,2.5648,2.5647,2.5647,2.5647,0,2.581,2.5845,2.5777,2.5797,2.5835,2.578,2.5819,2.5796,2.5777,2.5792,2.5733,2.5749,2.569,2.57,2.5666,2.5699,2.5699,2.5683,2.5674,2.5689,2.5691,2.569,2.5683,2.5651,2.565,2.5649,2.5649,0,2.5955,2.5911,2.5942,2.5902,2.5893,2.5922,2.5888,2.5906,2.5876,2.5896,2.5897,2.5851,2.5859,2.5815,2.5816,2.5793,2.5843,2.5822,2.585,2.5843,2.5895,2.5891,2.6067,2.6088,2.591,2.5911,2.5913,0,2.6037,2.6063,2.6025,2.603,2.6018,2.6027,2.6027,2.5974,2.5977,2.5957,2.5977,2.5981,2.598,2.5997,2.5964,2.5965,2.5943,2.6005,2.5943,2.5957,2.5945,2.5944,2.5947,2.6018,2.602,2.6022,2.6024,0,2.6188,2.6165,2.6167,2.6162,2.6164,2.6158,2.6148,2.6156,2.6098,2.6105,2.6112,2.6112,2.6112,2.6117,2.611,2.6095,2.6051,2.6043,2.6055,2.607,2.6086,2.6079,2.5886,2.604,2.6038,2.6037,2.6036,2.6035,2.6305,2.6324,2.6301,2.6305,2.6292,2.6284,2.6298,2.6269,2.6274,2.627,2.6238,2.6252,2.6232,2.6219,2.6208,2.6219,2.619,2.6206,2.621,2.6215,2.6225,2.6084,2.6217,2.6217,2.6216,2.6216,2.6216,0,2.6453,2.6434,2.6439,2.6426,2.643,2.6386,2.6373,2.6379,2.6392,2.6377,2.6378,2.6386,2.639,2.6358,2.6357,2.6372,2.6352,2.6374,2.6373,2.637,2.6251,2.6241,2.6391,2.6391,2.6391,2.6391,2.6391,2.639,2.6531,2.6561,2.6536,2.6559,2.654,2.6552,2.6549,2.6541,2.6529,2.6541,2.6544,2.6522,2.65,2.6498,2.65,2.649,2.6493,2.6523,2.6507,2.6396,2.6379,2.6362,2.6353,2.6524,2.6524,2.6625,2.6626,2.6627]}]]